Location: Dreilärchen
(47.9312°N, 8.6113°E)
Time: 21:09:34
(UTC+00:00)

Cosmos 614 Rocket - Pass Details

Date: 26 May 2022
Orbit: 732 x 764 km, 74.1° (Epoch: 02 July)

Event Time Altitude Azimuth Distance (km) Brightness Sun altitude
Rises 01:54:55 0° 334° (NNW) 3,216 7.6 -13.0°
Reaches altitude 10° 01:57:18 10° 332° (NNW) 2,291 6.8 -12.8°
Maximum altitude 02:02:25 62° 252° (WSW) 852 4.0 -12.2°
Drops below altitude 10° 02:07:32 10° 173° (S) 2,290 6.1 -11.7°
Enters shadow 02:09:15 - 170° (S) 2,952 6.6 -11.5°
